Tracking 23583 objects as of 1-Aug-2021
HD Live streaming from Space Station
objects crossing your sky now

TJS-3

Track TJS-3 now!
TJS-3 is classified as:


NORAD ID: 43874
Int'l Code: 2018-110A
Perigee: 35,761.7 km
Apogee: 35,823.1 km
Inclination: 0.4 °
Period: 1,436.0 minutes
Semi major axis: 42163 km
RCS: Unknown
Launch date: December 24, 2018
Source: People's Republic of China (PRC)
Launch site: Xichang Space Center, China (XSC)
aabbcc
Your satellite tracking list
Your tracking list is empty




NASA's NSSDC Master Catalog

Two Line Element Set (TLE):
1 43874U 18110A   21212.89340212 -.00000210  00000-0  00000-0 0  9998
2 43874   0.3727  93.2428 0007281  14.7293 251.0237  1.00276746  9551
Source of the keplerian elements: AFSPC